Year,Month,Day,Hour,Minute,Value (Times are PST for temperature in C)
2014,08,18,00,00,16.00
2014,08,18,00,04,15.40
2014,08,18,00,05,15.40
2014,08,18,00,06,15.40
2014,08,18,00,07,15.40
2014,08,18,00,08,15.40
2014,08,18,00,09,15.40
2014,08,18,00,10,15.40
2014,08,18,00,11,15.40
2014,08,18,00,12,15.40
2014,08,18,00,13,15.40
2014,08,18,00,14,15.40
2014,08,18,00,15,15.40
2014,08,18,00,19,16.20
2014,08,18,00,20,16.20
2014,08,18,00,21,16.20
2014,08,18,00,22,16.20
2014,08,18,00,23,16.20
2014,08,18,00,24,16.20
2014,08,18,00,25,16.20
2014,08,18,00,26,16.20
2014,08,18,00,27,16.20
2014,08,18,00,28,16.20
2014,08,18,00,29,16.20
2014,08,18,00,30,16.20
2014,08,18,00,34,16.40
2014,08,18,00,35,16.40
2014,08,18,00,36,16.40
2014,08,18,00,37,16.40
2014,08,18,00,38,16.40
2014,08,18,00,39,16.40
2014,08,18,00,40,16.40
2014,08,18,00,41,16.40
2014,08,18,00,42,16.40
2014,08,18,00,43,16.40
2014,08,18,00,44,16.40
2014,08,18,00,45,16.40
2014,08,18,00,49,16.70
2014,08,18,00,50,16.70
2014,08,18,00,51,16.70
2014,08,18,00,52,16.70
2014,08,18,00,53,16.70
2014,08,18,00,54,16.70
2014,08,18,00,55,16.70
2014,08,18,00,56,16.70
2014,08,18,00,57,16.70
2014,08,18,00,58,16.70
2014,08,18,00,59,16.70
2014,08,18,01,00,16.70
2014,08,18,01,04,16.60
2014,08,18,01,05,16.60
2014,08,18,01,06,16.60
2014,08,18,01,07,16.60
2014,08,18,01,08,16.60
2014,08,18,01,09,16.60
2014,08,18,01,10,16.60
2014,08,18,01,11,16.60
2014,08,18,01,12,16.60
2014,08,18,01,13,16.60
2014,08,18,01,14,16.60
2014,08,18,01,15,16.60
2014,08,18,01,19,16.40
2014,08,18,01,20,16.40
2014,08,18,01,21,16.40
2014,08,18,01,22,16.40
2014,08,18,01,23,16.40
2014,08,18,01,24,16.40
2014,08,18,01,25,16.40
2014,08,18,01,26,16.40
2014,08,18,01,27,16.40
2014,08,18,01,28,16.40
2014,08,18,01,29,16.40
2014,08,18,01,30,16.40
2014,08,18,01,34,16.20
2014,08,18,01,35,16.20
2014,08,18,01,36,16.20
2014,08,18,01,37,16.20
2014,08,18,01,38,16.20
2014,08,18,01,39,16.20
2014,08,18,01,40,16.20
2014,08,18,01,41,16.20
2014,08,18,01,42,16.20
2014,08,18,01,43,16.20
2014,08,18,01,44,16.20
2014,08,18,01,45,16.20
2014,08,18,01,49,15.90
2014,08,18,01,50,15.90
2014,08,18,01,51,15.90
2014,08,18,01,52,15.90
2014,08,18,01,53,15.90
2014,08,18,01,54,15.90
2014,08,18,01,55,15.90
2014,08,18,01,56,15.90
2014,08,18,01,57,15.90
2014,08,18,01,58,15.90
2014,08,18,01,59,15.90
2014,08,18,02,00,15.90
2014,08,18,02,04,16.10
2014,08,18,02,05,16.10
2014,08,18,02,06,16.10
2014,08,18,02,07,16.10
2014,08,18,02,08,16.10
2014,08,18,02,09,16.10
2014,08,18,02,10,16.10
2014,08,18,02,11,16.10
2014,08,18,02,12,16.10
2014,08,18,02,13,16.10
2014,08,18,02,14,16.10
2014,08,18,02,15,16.10
2014,08,18,02,19,16.20
2014,08,18,02,20,16.20
2014,08,18,02,21,16.20
2014,08,18,02,22,16.20
2014,08,18,02,23,16.20
2014,08,18,02,24,16.20
2014,08,18,02,25,16.20
2014,08,18,02,26,16.20
2014,08,18,02,27,16.20
2014,08,18,02,28,16.20
2014,08,18,02,29,16.20
2014,08,18,02,30,16.20
2014,08,18,02,34,16.30
2014,08,18,02,35,16.30
2014,08,18,02,36,16.30
2014,08,18,02,37,16.30
2014,08,18,02,38,16.30
2014,08,18,02,39,16.30
2014,08,18,02,40,16.30
2014,08,18,02,41,16.30
2014,08,18,02,42,16.30
2014,08,18,02,43,16.30
2014,08,18,02,44,16.30
2014,08,18,02,45,16.30
2014,08,18,02,49,16.40
2014,08,18,02,50,16.40
2014,08,18,02,51,16.40
2014,08,18,02,52,16.40
2014,08,18,02,53,16.40
2014,08,18,02,54,16.40
2014,08,18,02,55,16.40
2014,08,18,02,56,16.40
2014,08,18,02,57,16.40
2014,08,18,02,58,16.40
2014,08,18,02,59,16.40
2014,08,18,03,00,16.40
2014,08,18,03,04,16.00
2014,08,18,03,05,16.00
2014,08,18,03,06,16.00
2014,08,18,03,07,16.00
2014,08,18,03,08,16.00
2014,08,18,03,09,16.00
2014,08,18,03,10,16.00
2014,08,18,03,11,16.00
2014,08,18,03,12,16.00
2014,08,18,03,13,16.00
2014,08,18,03,14,16.00
2014,08,18,03,15,16.00
2014,08,18,03,19,16.30
2014,08,18,03,20,16.30
2014,08,18,03,21,16.30
2014,08,18,03,22,16.30
2014,08,18,03,23,16.30
2014,08,18,03,24,16.30
2014,08,18,03,25,16.30
2014,08,18,03,26,16.30
2014,08,18,03,27,16.30
2014,08,18,03,28,16.30
2014,08,18,03,29,16.30
2014,08,18,03,30,16.30
2014,08,18,03,34,16.10
2014,08,18,03,35,16.10
2014,08,18,03,36,16.10
2014,08,18,03,37,16.10
2014,08,18,03,38,16.10
2014,08,18,03,39,16.10
2014,08,18,03,40,16.10
2014,08,18,03,41,16.10
2014,08,18,03,42,16.10
2014,08,18,03,43,16.10
2014,08,18,03,44,16.10
2014,08,18,03,45,16.10
2014,08,18,03,49,15.90
2014,08,18,03,50,15.90
2014,08,18,03,51,15.90
2014,08,18,03,52,15.90
2014,08,18,03,53,15.90
2014,08,18,03,54,15.90
2014,08,18,03,55,15.90
2014,08,18,03,56,15.90
2014,08,18,03,57,15.90
2014,08,18,03,58,15.90
2014,08,18,03,59,15.90
2014,08,18,04,00,15.90
2014,08,18,04,04,15.10
2014,08,18,04,05,15.10
2014,08,18,04,06,15.10
2014,08,18,04,07,15.10
2014,08,18,04,08,15.10
2014,08,18,04,09,15.10
2014,08,18,04,10,15.10
2014,08,18,04,11,15.10
2014,08,18,04,12,15.10
2014,08,18,04,13,15.10
2014,08,18,04,14,15.10
2014,08,18,04,15,15.10
2014,08,18,04,19,14.90
2014,08,18,04,20,14.90
2014,08,18,04,21,14.90
2014,08,18,04,22,14.90
2014,08,18,04,23,14.90
2014,08,18,04,24,14.90
2014,08,18,04,25,14.90
2014,08,18,04,26,14.90
2014,08,18,04,27,14.90
2014,08,18,04,28,14.90
2014,08,18,04,29,14.90
2014,08,18,04,30,14.90
2014,08,18,04,34,14.90
2014,08,18,04,35,14.90
2014,08,18,04,36,14.90
2014,08,18,04,37,14.90
2014,08,18,04,38,14.90
2014,08,18,04,39,14.90
2014,08,18,04,40,14.90
2014,08,18,04,41,14.90
2014,08,18,04,42,14.90
2014,08,18,04,43,14.90
2014,08,18,04,44,14.90
2014,08,18,04,45,14.90
2014,08,18,04,49,15.20
2014,08,18,04,50,15.20
2014,08,18,04,51,15.20
2014,08,18,04,52,15.20
2014,08,18,04,53,15.20
2014,08,18,04,54,15.20
2014,08,18,04,55,15.20
2014,08,18,04,56,15.20
2014,08,18,04,57,15.20
2014,08,18,04,58,15.20
2014,08,18,04,59,15.20
2014,08,18,05,00,15.20
2014,08,18,05,04,15.10
2014,08,18,05,05,15.10
2014,08,18,05,06,15.10
2014,08,18,05,07,15.10
2014,08,18,05,08,15.10
2014,08,18,05,09,15.10
2014,08,18,05,10,15.10
2014,08,18,05,11,15.10
2014,08,18,05,12,15.10
2014,08,18,05,13,15.10
2014,08,18,05,14,15.10
2014,08,18,05,15,15.10
2014,08,18,05,19,15.20
2014,08,18,05,20,15.20
2014,08,18,05,21,15.20
2014,08,18,05,22,15.20
2014,08,18,05,23,15.20
2014,08,18,05,24,15.20
2014,08,18,05,25,15.20
2014,08,18,05,26,15.20
2014,08,18,05,27,15.20
2014,08,18,05,28,15.20
2014,08,18,05,29,15.20
2014,08,18,05,30,15.20
2014,08,18,05,34,15.20
2014,08,18,05,35,15.20
2014,08,18,05,36,15.20
2014,08,18,05,37,15.20
2014,08,18,05,38,15.20
2014,08,18,05,39,15.20
2014,08,18,05,40,15.20
2014,08,18,05,41,15.20
2014,08,18,05,42,15.20
2014,08,18,05,43,15.20
2014,08,18,05,44,15.20
2014,08,18,05,45,15.20
2014,08,18,05,49,14.20
2014,08,18,05,50,14.20
2014,08,18,05,51,14.20
2014,08,18,05,52,14.20
2014,08,18,05,53,14.20
2014,08,18,05,54,14.20
2014,08,18,05,55,14.20
2014,08,18,05,56,14.20
2014,08,18,05,57,14.20
2014,08,18,05,58,14.20
2014,08,18,05,59,14.20
2014,08,18,06,00,14.20
2014,08,18,06,04,14.60
2014,08,18,06,05,14.60
2014,08,18,06,06,14.60
2014,08,18,06,07,14.60
2014,08,18,06,08,14.60
2014,08,18,06,09,14.60
2014,08,18,06,10,14.60
2014,08,18,06,11,14.60
2014,08,18,06,12,14.60
2014,08,18,06,13,14.60
2014,08,18,06,14,14.60
2014,08,18,06,15,14.60
2014,08,18,06,19,14.70
2014,08,18,06,20,14.70
2014,08,18,06,21,14.70
2014,08,18,06,22,14.70
2014,08,18,06,23,14.70
2014,08,18,06,24,14.70
2014,08,18,06,25,14.70
2014,08,18,06,26,14.70
2014,08,18,06,27,14.70
2014,08,18,06,28,14.70
2014,08,18,06,29,14.70
2014,08,18,06,30,14.70
2014,08,18,06,34,15.20
2014,08,18,06,35,15.20
2014,08,18,06,36,15.20
2014,08,18,06,37,15.20
2014,08,18,06,38,15.20
2014,08,18,06,39,15.20
2014,08,18,06,40,15.20
2014,08,18,06,41,15.20
2014,08,18,06,42,15.20
2014,08,18,06,43,15.20
2014,08,18,06,44,15.20
2014,08,18,06,45,15.20
2014,08,18,06,49,15.30
2014,08,18,06,50,15.30
2014,08,18,06,51,15.30
2014,08,18,06,52,15.30
2014,08,18,06,53,15.30
2014,08,18,06,54,15.30
2014,08,18,06,55,15.30
2014,08,18,06,56,15.30
2014,08,18,06,57,15.30
2014,08,18,06,58,15.30
2014,08,18,06,59,15.30
2014,08,18,07,00,15.30
2014,08,18,07,04,16.10
2014,08,18,07,05,16.10
2014,08,18,07,06,16.10
2014,08,18,07,07,16.10
2014,08,18,07,08,16.10
2014,08,18,07,09,16.10
2014,08,18,07,10,16.10
2014,08,18,07,11,16.10
2014,08,18,07,12,16.10
2014,08,18,07,13,16.10
2014,08,18,07,14,16.10
2014,08,18,07,15,16.10
2014,08,18,07,19,16.30
2014,08,18,07,20,16.30
2014,08,18,07,21,16.30
2014,08,18,07,22,16.30
2014,08,18,07,23,16.30
2014,08,18,07,24,16.30
2014,08,18,07,25,16.30
2014,08,18,07,26,16.30
2014,08,18,07,27,16.30
2014,08,18,07,28,16.30
2014,08,18,07,29,16.30
2014,08,18,07,30,16.30
2014,08,18,07,34,16.00
2014,08,18,07,35,16.00
2014,08,18,07,36,16.00
2014,08,18,07,37,16.00
2014,08,18,07,38,16.00
2014,08,18,07,39,16.00
2014,08,18,07,40,16.00
2014,08,18,07,41,16.00
2014,08,18,07,42,16.00
2014,08,18,07,43,16.00
2014,08,18,07,44,16.00
2014,08,18,07,45,16.00
2014,08,18,07,49,16.80
2014,08,18,07,50,16.80
2014,08,18,07,51,16.80
2014,08,18,07,52,16.80
2014,08,18,07,53,16.80
2014,08,18,07,54,16.80
2014,08,18,07,55,16.80
2014,08,18,07,56,16.80
2014,08,18,07,57,16.80
2014,08,18,07,58,16.80
2014,08,18,07,59,16.80
2014,08,18,08,00,16.80
2014,08,18,08,04,16.80
2014,08,18,08,05,16.80
2014,08,18,08,06,16.80
2014,08,18,08,07,16.80
2014,08,18,08,08,16.80
2014,08,18,08,09,16.80
2014,08,18,08,10,16.80
2014,08,18,08,11,16.80
2014,08,18,08,12,16.80
2014,08,18,08,13,16.80
2014,08,18,08,14,16.80
2014,08,18,08,15,16.80
2014,08,18,08,19,17.30
2014,08,18,08,20,17.30
2014,08,18,08,21,17.30
2014,08,18,08,22,17.30
2014,08,18,08,23,17.30
2014,08,18,08,24,17.30
2014,08,18,08,25,17.30
2014,08,18,08,26,17.30
2014,08,18,08,27,17.30
2014,08,18,08,28,17.30
2014,08,18,08,29,17.30
2014,08,18,08,30,17.30
2014,08,18,08,34,17.70
2014,08,18,08,35,17.70
2014,08,18,08,36,17.70
2014,08,18,08,37,17.70
2014,08,18,08,38,17.70
2014,08,18,08,39,17.70
2014,08,18,08,40,17.70
2014,08,18,08,41,17.70
2014,08,18,08,42,17.70
2014,08,18,08,43,17.70
2014,08,18,08,44,17.70
2014,08,18,08,45,17.70
2014,08,18,08,49,17.60
2014,08,18,08,50,17.60
2014,08,18,08,51,17.60
2014,08,18,08,52,17.60
2014,08,18,08,53,17.60
2014,08,18,08,54,17.60
2014,08,18,08,55,17.60
2014,08,18,08,56,17.60
2014,08,18,08,57,17.60
2014,08,18,08,58,17.60
2014,08,18,08,59,17.60
2014,08,18,09,00,17.60
2014,08,18,09,04,16.90
2014,08,18,09,05,16.90
2014,08,18,09,06,16.90
2014,08,18,09,07,16.90
2014,08,18,09,08,16.90
2014,08,18,09,09,16.90
2014,08,18,09,10,16.90
2014,08,18,09,11,16.90
2014,08,18,09,12,16.90
2014,08,18,09,13,16.90
2014,08,18,09,14,16.90
2014,08,18,09,15,16.90
2014,08,18,09,19,16.70
2014,08,18,09,20,16.70
2014,08,18,09,21,16.70
2014,08,18,09,22,16.70
2014,08,18,09,23,16.70
2014,08,18,09,24,16.70
2014,08,18,09,25,16.70
2014,08,18,09,26,16.70
2014,08,18,09,27,16.70
2014,08,18,09,28,16.70
2014,08,18,09,29,16.70
2014,08,18,09,30,16.70
2014,08,18,09,34,15.70
2014,08,18,09,35,15.70
2014,08,18,09,36,15.70
2014,08,18,09,37,15.70
2014,08,18,09,38,15.70
2014,08,18,09,39,15.70
2014,08,18,09,40,15.70
2014,08,18,09,41,15.70
2014,08,18,09,42,15.70
2014,08,18,09,43,15.70
2014,08,18,09,44,15.70
2014,08,18,09,45,15.70
2014,08,18,09,49,15.00
2014,08,18,09,50,15.00
2014,08,18,09,51,15.00
2014,08,18,09,52,15.00
2014,08,18,09,53,15.00
2014,08,18,09,54,15.00
2014,08,18,09,55,15.00
2014,08,18,09,56,15.00
2014,08,18,09,57,15.00
2014,08,18,09,58,15.00
2014,08,18,09,59,15.00
2014,08,18,10,00,15.00
2014,08,18,10,04,15.70
2014,08,18,10,05,15.70
2014,08,18,10,06,15.70
2014,08,18,10,07,15.70
2014,08,18,10,08,15.70
2014,08,18,10,09,15.70
2014,08,18,10,10,15.70
2014,08,18,10,11,15.70
2014,08,18,10,12,15.70
2014,08,18,10,13,15.70
2014,08,18,10,14,15.70
2014,08,18,10,15,15.70
2014,08,18,10,19,16.20
2014,08,18,10,20,16.20
2014,08,18,10,21,16.20
2014,08,18,10,22,16.20
2014,08,18,10,23,16.20
2014,08,18,10,24,16.20
2014,08,18,10,25,16.20
2014,08,18,10,26,16.20
2014,08,18,10,27,16.20
2014,08,18,10,28,16.20
2014,08,18,10,29,16.20
2014,08,18,10,30,16.20
2014,08,18,10,34,16.90
2014,08,18,10,35,16.90
2014,08,18,10,36,16.90
2014,08,18,10,37,16.90
2014,08,18,10,38,16.90
2014,08,18,10,39,16.90
2014,08,18,10,40,16.90
2014,08,18,10,41,16.90
2014,08,18,10,42,16.90
2014,08,18,10,43,16.90
2014,08,18,10,44,16.90
2014,08,18,10,45,16.90
2014,08,18,10,49,15.90
2014,08,18,10,50,15.90
2014,08,18,10,51,15.90
2014,08,18,10,52,15.90
2014,08,18,10,53,15.90
2014,08,18,10,54,15.90
2014,08,18,10,55,15.90
2014,08,18,10,56,15.90
2014,08,18,10,57,15.90
2014,08,18,10,58,15.90
2014,08,18,10,59,15.90
2014,08,18,11,00,15.90
2014,08,18,11,04,15.80
2014,08,18,11,05,15.80
2014,08,18,11,06,15.80
2014,08,18,11,07,15.80
2014,08,18,11,08,15.80
2014,08,18,11,09,15.80
2014,08,18,11,10,15.80
2014,08,18,11,11,15.80
2014,08,18,11,12,15.80
2014,08,18,11,13,15.80
2014,08,18,11,14,15.80
2014,08,18,11,15,15.80
2014,08,18,11,19,17.20
2014,08,18,11,20,17.20
2014,08,18,11,21,17.20
2014,08,18,11,22,17.20
2014,08,18,11,23,17.20
2014,08,18,11,24,17.20
2014,08,18,11,25,17.20
2014,08,18,11,26,17.20
2014,08,18,11,27,17.20
2014,08,18,11,28,17.20
2014,08,18,11,29,17.20
2014,08,18,11,30,17.20
2014,08,18,11,34,17.20
2014,08,18,11,35,17.20
2014,08,18,11,36,17.20
2014,08,18,11,37,17.20
2014,08,18,11,38,17.20
2014,08,18,11,39,17.20
2014,08,18,11,40,17.20
2014,08,18,11,41,17.20
2014,08,18,11,42,17.20
2014,08,18,11,43,17.20
2014,08,18,11,44,17.20
2014,08,18,11,45,17.20
2014,08,18,11,49,17.10
2014,08,18,11,50,17.10
2014,08,18,11,51,17.10
2014,08,18,11,52,17.10
2014,08,18,11,53,17.10
2014,08,18,11,54,17.10
2014,08,18,11,55,17.10
2014,08,18,11,56,17.10
2014,08,18,11,57,17.10
2014,08,18,11,58,17.10
2014,08,18,11,59,17.10
2014,08,18,12,00,17.10
2014,08,18,12,04,17.30
2014,08,18,12,05,17.30
2014,08,18,12,06,17.30
2014,08,18,12,07,17.30
2014,08,18,12,08,17.30
2014,08,18,12,09,17.30
2014,08,18,12,10,17.30
2014,08,18,12,11,17.30
2014,08,18,12,12,17.30
2014,08,18,12,13,17.30
2014,08,18,12,14,17.30
2014,08,18,12,15,17.30
2014,08,18,12,19,17.80
2014,08,18,12,20,17.80
2014,08,18,12,21,17.80
2014,08,18,12,22,17.80
2014,08,18,12,23,17.80
2014,08,18,12,24,17.80
2014,08,18,12,25,17.80
2014,08,18,12,26,17.80
2014,08,18,12,27,17.80
2014,08,18,12,28,17.80
2014,08,18,12,29,17.80
2014,08,18,12,30,17.80
2014,08,18,12,34,18.00
2014,08,18,12,35,18.00
2014,08,18,12,36,18.00
2014,08,18,12,37,18.00
2014,08,18,12,38,18.00
2014,08,18,12,39,18.00
2014,08,18,12,40,18.00
2014,08,18,12,41,18.00
2014,08,18,12,42,18.00
2014,08,18,12,43,18.00
2014,08,18,12,44,18.00
2014,08,18,12,45,18.00
2014,08,18,12,49,17.70
2014,08,18,12,50,17.70
2014,08,18,12,51,17.70
2014,08,18,12,52,17.70
2014,08,18,12,53,17.70
2014,08,18,12,54,17.70
2014,08,18,12,55,17.70
2014,08,18,12,56,17.70
2014,08,18,12,57,17.70
2014,08,18,12,58,17.70
2014,08,18,12,59,17.70
2014,08,18,13,00,17.70
2014,08,18,13,04,17.70
2014,08,18,13,05,17.70
2014,08,18,13,06,17.70
2014,08,18,13,07,17.70
2014,08,18,13,08,17.70
2014,08,18,13,09,17.70
2014,08,18,13,10,17.70
2014,08,18,13,11,17.70
2014,08,18,13,12,17.70
2014,08,18,13,13,17.70
2014,08,18,13,14,17.70
2014,08,18,13,15,17.70
2014,08,18,13,19,17.30
2014,08,18,13,20,17.30
2014,08,18,13,21,17.30
2014,08,18,13,22,17.30
2014,08,18,13,23,17.30
2014,08,18,13,24,17.30
2014,08,18,13,25,17.30
2014,08,18,13,26,17.30
2014,08,18,13,27,17.30
2014,08,18,13,28,17.30
2014,08,18,13,29,17.30
2014,08,18,13,30,17.30
2014,08,18,13,34,18.10
2014,08,18,13,35,18.10
2014,08,18,13,36,18.10
2014,08,18,13,37,18.10
2014,08,18,13,38,18.10
2014,08,18,13,39,18.10
2014,08,18,13,40,18.10
2014,08,18,13,41,18.10
2014,08,18,13,42,18.10
2014,08,18,13,43,18.10
2014,08,18,13,44,18.10
2014,08,18,13,45,18.10
2014,08,18,13,49,18.10
2014,08,18,13,50,18.10
2014,08,18,13,51,18.10
2014,08,18,13,52,18.10
2014,08,18,13,53,18.10
2014,08,18,13,54,18.10
2014,08,18,13,55,18.10
2014,08,18,13,56,18.10
2014,08,18,13,57,18.10
2014,08,18,13,58,18.10
2014,08,18,13,59,18.10
2014,08,18,14,00,18.10
2014,08,18,14,04,17.30
2014,08,18,14,05,17.30
2014,08,18,14,06,17.30
2014,08,18,14,07,17.30
2014,08,18,14,08,17.30
2014,08,18,14,09,17.30
2014,08,18,14,10,17.30
2014,08,18,14,11,17.30
2014,08,18,14,12,17.30
2014,08,18,14,13,17.30
2014,08,18,14,14,17.30
2014,08,18,14,15,17.30
2014,08,18,14,19,16.90
2014,08,18,14,20,16.90
2014,08,18,14,21,16.90
2014,08,18,14,22,16.90
2014,08,18,14,23,16.90
2014,08,18,14,24,16.90
2014,08,18,14,25,16.90
2014,08,18,14,26,16.90
2014,08,18,14,27,16.90
2014,08,18,14,28,16.90
2014,08,18,14,29,16.90
2014,08,18,14,30,16.90
2014,08,18,14,34,16.60
2014,08,18,14,35,16.60
2014,08,18,14,36,16.60
2014,08,18,14,37,16.60
2014,08,18,14,38,16.60
2014,08,18,14,39,16.60
2014,08,18,14,40,16.60
2014,08,18,14,41,16.60
2014,08,18,14,42,16.60
2014,08,18,14,43,16.60
2014,08,18,14,44,16.60
2014,08,18,14,45,16.60
2014,08,18,14,49,16.90
2014,08,18,14,50,16.90
2014,08,18,14,51,16.90
2014,08,18,14,52,16.90
2014,08,18,14,53,16.90
2014,08,18,14,54,16.90
2014,08,18,14,55,16.90
2014,08,18,14,56,16.90
2014,08,18,14,57,16.90
2014,08,18,14,58,16.90
2014,08,18,14,59,16.90
2014,08,18,15,00,16.90
2014,08,18,15,04,17.10
2014,08,18,15,05,17.10
2014,08,18,15,06,17.10
2014,08,18,15,07,17.10
2014,08,18,15,08,17.10
2014,08,18,15,09,17.10
2014,08,18,15,10,17.10
2014,08,18,15,11,17.10
2014,08,18,15,12,17.10
2014,08,18,15,13,17.10
2014,08,18,15,14,17.10
2014,08,18,15,15,17.10
2014,08,18,15,19,17.70
2014,08,18,15,20,17.70
2014,08,18,15,21,17.70
2014,08,18,15,22,17.70
2014,08,18,15,23,17.70
2014,08,18,15,24,17.70
2014,08,18,15,25,17.70
2014,08,18,15,26,17.70
2014,08,18,15,27,17.70
2014,08,18,15,28,17.70
2014,08,18,15,29,17.70
2014,08,18,15,30,17.70
2014,08,18,15,34,17.30
2014,08,18,15,35,17.30
2014,08,18,15,36,17.30
2014,08,18,15,37,17.30
2014,08,18,15,38,17.30
2014,08,18,15,39,17.30
2014,08,18,15,40,17.30
2014,08,18,15,41,17.30
2014,08,18,15,42,17.30
2014,08,18,15,43,17.30
2014,08,18,15,44,17.30
2014,08,18,15,45,17.30
2014,08,18,15,49,16.80
2014,08,18,15,50,16.80
2014,08,18,15,51,16.80
2014,08,18,15,52,16.80
2014,08,18,15,53,16.80
2014,08,18,15,54,16.80
2014,08,18,15,55,16.80
2014,08,18,15,56,16.80
2014,08,18,15,57,16.80
2014,08,18,15,58,16.80
2014,08,18,15,59,16.80
2014,08,18,16,00,16.80
2014,08,18,16,04,16.80
2014,08,18,16,05,16.80
2014,08,18,16,06,16.80
2014,08,18,16,07,16.80
2014,08,18,16,08,16.80
2014,08,18,16,09,16.80
2014,08,18,16,10,16.80
2014,08,18,16,11,16.80
2014,08,18,16,12,16.80
2014,08,18,16,13,16.80
2014,08,18,16,14,16.80
2014,08,18,16,15,16.80
2014,08,18,16,19,16.90
2014,08,18,16,20,16.90
2014,08,18,16,21,16.90
2014,08,18,16,22,16.90
2014,08,18,16,23,16.90
2014,08,18,16,24,16.90
2014,08,18,16,25,16.90
2014,08,18,16,26,16.90
2014,08,18,16,27,16.90
2014,08,18,16,28,16.90
2014,08,18,16,29,16.90
2014,08,18,16,30,16.90
2014,08,18,16,34,16.80
2014,08,18,16,35,16.80
2014,08,18,16,36,16.80
2014,08,18,16,37,16.80
2014,08,18,16,38,16.80
2014,08,18,16,39,16.80
2014,08,18,16,40,16.80
2014,08,18,16,41,16.80
2014,08,18,16,42,16.80
2014,08,18,16,43,16.80
2014,08,18,16,44,16.80
2014,08,18,16,45,16.80
2014,08,18,16,49,16.80
2014,08,18,16,50,16.80
2014,08,18,16,51,16.80
2014,08,18,16,52,16.80
2014,08,18,16,53,16.80
2014,08,18,16,54,16.80
2014,08,18,16,55,16.80
2014,08,18,16,56,16.80
2014,08,18,16,57,16.80
2014,08,18,16,58,16.80
2014,08,18,16,59,16.80
2014,08,18,17,00,16.80
2014,08,18,17,04,16.90
2014,08,18,17,05,16.90
2014,08,18,17,06,16.90
2014,08,18,17,07,16.90
2014,08,18,17,08,16.90
2014,08,18,17,09,16.90
2014,08,18,17,10,16.90
2014,08,18,17,11,16.90
2014,08,18,17,12,16.90
2014,08,18,17,13,16.90
2014,08,18,17,14,16.90
2014,08,18,17,15,16.90
2014,08,18,17,19,16.60
2014,08,18,17,20,16.60
2014,08,18,17,21,16.60
2014,08,18,17,22,16.60
2014,08,18,17,23,16.60
2014,08,18,17,24,16.60
2014,08,18,17,25,16.60
2014,08,18,17,26,16.60
2014,08,18,17,27,16.60
2014,08,18,17,28,16.60
2014,08,18,17,29,16.60
2014,08,18,17,30,16.60
2014,08,18,17,34,16.70
2014,08,18,17,35,16.70
2014,08,18,17,36,16.70
2014,08,18,17,37,16.70
2014,08,18,17,38,16.70
2014,08,18,17,39,16.70
2014,08,18,17,40,16.70
2014,08,18,17,41,16.70
2014,08,18,17,42,16.70
2014,08,18,17,43,16.70
2014,08,18,17,44,16.70
2014,08,18,17,45,16.70
2014,08,18,17,49,16.40
2014,08,18,17,50,16.40
2014,08,18,17,51,16.40
2014,08,18,17,52,16.40
2014,08,18,17,53,16.40
2014,08,18,17,54,16.40
2014,08,18,17,55,16.40
2014,08,18,17,56,16.40
2014,08,18,17,57,16.40
2014,08,18,17,58,16.40
2014,08,18,17,59,16.40
2014,08,18,18,00,16.40
2014,08,18,18,04,16.20
2014,08,18,18,05,16.20
2014,08,18,18,06,16.20
2014,08,18,18,07,16.20
2014,08,18,18,08,16.20
2014,08,18,18,09,16.20
2014,08,18,18,10,16.20
2014,08,18,18,11,16.20
2014,08,18,18,12,16.20
2014,08,18,18,13,16.20
2014,08,18,18,14,16.20
2014,08,18,18,15,16.20
2014,08,18,18,19,16.10
2014,08,18,18,20,16.10
2014,08,18,18,21,16.10
2014,08,18,18,22,16.10
2014,08,18,18,23,16.10
2014,08,18,18,24,16.10
2014,08,18,18,25,16.10
2014,08,18,18,26,16.10
2014,08,18,18,27,16.10
2014,08,18,18,28,16.10
2014,08,18,18,29,16.10
2014,08,18,18,30,16.10
2014,08,18,18,34,16.10
2014,08,18,18,35,16.10
2014,08,18,18,36,16.10
2014,08,18,18,37,16.10
2014,08,18,18,38,16.10
2014,08,18,18,39,16.10
2014,08,18,18,40,16.10
2014,08,18,18,41,16.10
2014,08,18,18,42,16.10
2014,08,18,18,43,16.10
2014,08,18,18,44,16.10
2014,08,18,18,45,16.10
2014,08,18,18,49,15.80
2014,08,18,18,50,15.80
2014,08,18,18,51,15.80
2014,08,18,18,52,15.80
2014,08,18,18,53,15.80
2014,08,18,18,54,15.80
2014,08,18,18,55,15.80
2014,08,18,18,56,15.80
2014,08,18,18,57,15.80
2014,08,18,18,58,15.80
2014,08,18,18,59,15.80
2014,08,18,19,00,15.80
2014,08,18,19,04,15.40
2014,08,18,19,05,15.40
2014,08,18,19,06,15.40
2014,08,18,19,07,15.40
2014,08,18,19,08,15.40
2014,08,18,19,09,15.40
2014,08,18,19,10,15.40
2014,08,18,19,11,15.40
2014,08,18,19,12,15.40
2014,08,18,19,13,15.40
2014,08,18,19,14,15.40
2014,08,18,19,15,15.40
2014,08,18,19,19,15.40
2014,08,18,19,20,15.40
2014,08,18,19,21,15.40
2014,08,18,19,22,15.40
2014,08,18,19,23,15.40
2014,08,18,19,24,15.40
2014,08,18,19,25,15.40
2014,08,18,19,26,15.40
2014,08,18,19,27,15.40
2014,08,18,19,28,15.40
2014,08,18,19,29,15.40
2014,08,18,19,30,15.40
2014,08,18,19,34,15.60
2014,08,18,19,35,15.60
2014,08,18,19,36,15.60
2014,08,18,19,37,15.60
2014,08,18,19,38,15.60
2014,08,18,19,39,15.60
2014,08,18,19,40,15.60
2014,08,18,19,41,15.60
2014,08,18,19,42,15.60
2014,08,18,19,43,15.60
2014,08,18,19,44,15.60
2014,08,18,19,45,15.60
2014,08,18,19,49,15.50
2014,08,18,19,50,15.50
2014,08,18,19,51,15.50
2014,08,18,19,52,15.50
2014,08,18,19,53,15.50
2014,08,18,19,54,15.50
2014,08,18,19,55,15.50
2014,08,18,19,56,15.50
2014,08,18,19,57,15.50
2014,08,18,19,58,15.50
2014,08,18,19,59,15.50
2014,08,18,20,00,15.50
2014,08,18,20,04,15.50
2014,08,18,20,05,15.50
2014,08,18,20,06,15.50
2014,08,18,20,07,15.50
2014,08,18,20,08,15.50
2014,08,18,20,09,15.50
2014,08,18,20,10,15.50
2014,08,18,20,11,15.50
2014,08,18,20,12,15.50
2014,08,18,20,13,15.50
2014,08,18,20,14,15.50
2014,08,18,20,15,15.50
2014,08,18,20,19,14.90
2014,08,18,20,20,14.90
2014,08,18,20,21,14.90
2014,08,18,20,22,14.90
2014,08,18,20,23,14.90
2014,08,18,20,24,14.90
2014,08,18,20,25,14.90
2014,08,18,20,26,14.90
2014,08,18,20,27,14.90
2014,08,18,20,28,14.90
2014,08,18,20,29,14.90
2014,08,18,20,30,14.90
2014,08,18,20,34,15.20
2014,08,18,20,35,15.20
2014,08,18,20,36,15.20
2014,08,18,20,37,15.20
2014,08,18,20,38,15.20
2014,08,18,20,39,15.20
2014,08,18,20,40,15.20
2014,08,18,20,41,15.20
2014,08,18,20,42,15.20
2014,08,18,20,43,15.20
2014,08,18,20,44,15.20
2014,08,18,20,45,15.20
2014,08,18,20,49,15.20
2014,08,18,20,50,15.20
2014,08,18,20,51,15.20
2014,08,18,20,52,15.20
2014,08,18,20,53,15.20
2014,08,18,20,54,15.20
2014,08,18,20,55,15.20
2014,08,18,20,56,15.20
2014,08,18,20,57,15.20
2014,08,18,20,58,15.20
2014,08,18,20,59,15.20
2014,08,18,21,00,15.20
2014,08,18,21,04,14.40
2014,08,18,21,05,14.40
2014,08,18,21,06,14.40
2014,08,18,21,07,14.40
2014,08,18,21,08,14.40
2014,08,18,21,09,14.40
2014,08,18,21,10,14.40
2014,08,18,21,11,14.40
2014,08,18,21,12,14.40
2014,08,18,21,13,14.40
2014,08,18,21,14,14.40
2014,08,18,21,15,14.40
2014,08,18,21,19,13.80
2014,08,18,21,20,13.80
2014,08,18,21,21,13.80
2014,08,18,21,22,13.80
2014,08,18,21,23,13.80
2014,08,18,21,24,13.80
2014,08,18,21,25,13.80
2014,08,18,21,26,13.80
2014,08,18,21,27,13.80
2014,08,18,21,28,13.80
2014,08,18,21,29,13.80
2014,08,18,21,30,13.80
2014,08,18,21,34,13.80
2014,08,18,21,35,13.80
2014,08,18,21,36,13.80
2014,08,18,21,37,13.80
2014,08,18,21,38,13.80
2014,08,18,21,39,13.80
2014,08,18,21,40,13.80